Content
SEND FEEDBACK

Daily
Averages
Monthly
Summary
United States of America

NORTHFIELD, VERMONT


Home > North America > United States > Vermont
Elevation: 1407 feet     Latitude: 44 01N     Longitude: 072 37W

WEATHER
 
SELECT A DAY
Number of Records: 246,807;   Date Range: 1/1/95 - 7/20/14
 
SHARE

PRINT THIS DATA

[ ← Previous Day ]
WEATHER ALMANAC - JANUARY 23, 2013
[ Next Day → ]
[ °C ]   °F
Weather ElementAverageHighLow
Temperature-7.1 °F-2.2 °F (12:22 am)-13 °F (11:51 pm)
Dewpoint-14.7 °F-7.1 °F (12:51 am)-18.9 °F (7:51 am)
Humidity70.4 %84 % (2:38 am)50 % (2:51 pm)
Barometer30.12 in30.21 in (9:51 am)29.99 in (12:22 am)
Wind Speed7.8 mph13.8 mph (7:22 am)
Wind Gust19.6 mph (6:51 am)
Weather ElementAverage
Visibility6.9 mi
Wind DirectionWNW (287.8 °)

Weather ElementTotal
Precipitation---
Heating Degree Days72.6 (Base 65)
Averaged from 36 records on January 23, 2013
WEATHER CONDITIONS BREAKOUT
WIND DIRECTION BREAKOUT
WEATHER BY HOUR - JANUARY 23, 2013
[ °C ]   °F
Local TimeTemperatureDewpointHumidityBarometerVisibilityWind DirectionWind SpeedGust SpeedPrecipitationEventsConditions
12:22 AM-2.2 °F-7.6 °F78 %29.99 in3.0 miNNW (330°)5.8 mph0.00 inSnowLight Snow
12:33 AM-2.2 °F-7.6 °F78 %29.99 in2.5 miNNW (330°)5.8 mph0.00 inSnowLight Snow
12:46 AM-2.2 °F-7.6 °F78 %29.99 in3.0 miNNW (330°)8.1 mphSnowLight Snow
12:51 AM-2.9 °F-7.1 °F82 %30.09 in2.5 miNNW (330°)6.9 mph0.00 inSnowLight Snow
1:07 AM-2.2 °F-7.6 °F78 %29.99 in1.5 miNNW (340°)8.1 mph0.00 inSnowLight Snow
1:38 AM-2.2 °F-7.6 °F78 %30.00 in1.0 miNNW (340°)8.1 mph0.00 inSnowLight Snow
1:51 AM-4.0 °F-8.0 °F83 %30.10 in1.2 miNNW (340°)8.1 mph0.00 inSnowLight Snow
2:38 AM-5.8 °F-9.4 °F84 %30.02 in2.0 miNNW (340°)4.6 mph0.00 inSnowLight Snow
2:51 AM-5.1 °F-9.0 °F83 %30.12 in3.0 miNNW (330°)4.6 mph0.00 inSnowLight Snow
3:22 AM-5.8 °F-11.2 °F77 %30.02 in5.0 miNNW (330°)4.6 mph0.00 inHaze
3:51 AM-7.1 °F-11.0 °F83 %30.12 in4.0 miNNW (340°)5.8 mph0.00 inOvercast
4:08 AM-7.6 °F-11.2 °F84 %30.02 in4.0 miNNW (340°)9.2 mph0.00 inHaze
4:51 AM-8.0 °F-13.0 °F79 %30.13 in4.0 miNW (320°)6.9 mph0.00 inHaze
5:51 AM-9.0 °F-15.0 °F75 %30.15 in4.0 miNW (310°)11.5 mphHaze
6:51 AM-11.0 °F-17.0 °F75 %30.17 in7.0 miNW (320°)10.4 mph19.6 mphMostly Cloudy
7:22 AM-11.2 °F-18.4 °F70 %30.06 in8.0 miNW (310°)13.8 mph18.4 mphScattered Clouds
7:51 AM-11.0 °F-18.9 °F68 %30.18 in10.0 miNW (310°)11.5 mphClear
8:43 AM-11.2 °F-16.6 °F77 %30.08 in9.0 miNNW (330°)9.2 mphMostly Cloudy
8:51 AM-11.0 °F-18.0 °F71 %30.20 in9.0 miNW (310°)11.5 mphMostly Cloudy
9:51 AM-9.9 °F-17.0 °F71 %30.21 in4.0 miNNW (340°)9.2 mphHaze
10:19 AM-9.4 °F-18.4 °F65 %30.10 in9.0 miNW (310°)8.1 mphMostly Cloudy
10:31 AM-9.4 °F-18.4 °F65 %30.10 in10.0 miNW (310°)8.1 mphScattered Clouds
10:51 AM-9.0 °F-18.0 °F65 %30.21 in10.0 miNW (320°)9.2 mphClear
11:51 AM-7.1 °F-18.0 °F59 %30.19 in10.0 miWNW (300°)10.4 mphScattered Clouds
12:51 PM-6.0 °F-18.9 °F54 %30.17 in10.0 miNW (320°)12.7 mph19.6 mphClear
1:51 PM-5.1 °F-18.9 °F51 %30.17 in10.0 miNW (320°)11.5 mph19.6 mphClear
2:51 PM-4.0 °F-18.4 °F50 %30.06 in10.0 miNNW (330°)8.1 mphClear
3:51 PM-4.0 °F-18.4 °F50 %30.06 in10.0 miNW (310°)8.1 mphClear
4:51 PM-5.1 °F-18.0 °F54 %30.17 in10.0 miNW (310°)8.1 mphClear
5:51 PM-6.0 °F-17.0 °F59 %30.18 in10.0 miNW (310°)9.2 mphClear
6:51 PM-8.0 °F-18.0 °F61 %30.20 in10.0 miNorth (10°)4.6 mphClear
7:51 PM-8.0 °F-17.0 °F65 %30.20 in10.0 miNNW (330°)6.9 mphClear
8:51 PM-9.0 °F-18.0 °F65 %30.20 in10.0 miWNW (300°)6.9 mphClear
9:51 PM-9.9 °F-18.0 °F68 %30.19 in10.0 miCalmClear
10:51 PM-11.9 °F-18.0 °F74 %30.20 in10.0 miNorth (10°)3.5 mphClear
11:51 PM-13.0 °F-18.0 °F78 %30.20 in10.0 miCalmClear
Hourly data recorded from KMPV, located miles away from Northfield, Vermont







STORIES FROM OUR PARTNERS